Tracking 29040 objects as of 15-Jun-2024
HD Live streaming from Space Station
objects crossing your sky now

STARLINK-31968

Track STARLINK-31968 now!
10-day predictions
STARLINK-31968 is classified as:


NORAD ID: 59927
Int'l Code: 2024-106F
Perigee: 336.1 km
Apogee: 338.5 km
Inclination: 43.0 °
Period: 91.1 minutes
Semi major axis: 6708 km
RCS: Unknown
Launch date: June 1, 2024
Source: United States (US)
Launch site: AIR FORCE EASTERN TEST RANGE (AFETR)
Your satellite tracking list
Your tracking list is empty




NASA's NSSDC Master Catalog

Two Line Element Set (TLE):
1 59927U 24106F   24166.91667824 -.00785058  00000-0 -44564-2 0  9997
2 59927  43.0027 340.8588 0001811 290.8843 205.9479 15.80104084  3416
Source of the keplerian elements: AFSPC